West Memphis, AR

3:26 AM CDT on August 24, 2019 (GMT -0500)
West Memphis Municipal

Weather History for KAWM - July, 2019

Change the Weather History Date:

Monday, July 15, 2019

  Actual Average Record
Temperature  
Mean Temperature 76 °F -  
Max Temperature 82 °F 92 °F 104 °F (1980)
Min Temperature 72 °F 70 °F 58 °F (1967)
Cooling Degree Days 11    
Growing Degree Days 26 (Base 50)    
Moisture  
Dew Point 74 °F    
Average Humidity 94    
Maximum Humidity 100    
Minimum Humidity 81    
Precipitation  
Precipitation 1.54 in - - ()
Sea Level Pressure  
Sea Level Pressure 29.92 in    
Wind  
Wind Speed 16 mph (SSE)    
Max Wind Speed 25 mph    
Max Gust Speed 38 mph    
Visibility 6 miles    
Events Rain , Thunderstorm    
Averages and records for this station are not official NWS values.
T = Trace of Precipitation, MM = Missing Value Source: NWS Daily Summary

Daily Weather History Graph

Daily Weather History Graph

Search for Another Location

Airport or City:

Astronomy

Jul. 15, 2019 Rise Set
Actual Time 5:57 AM CDT 8:15 PM CDT
Civil Twilight 5:28 AM CDT 8:44 PM CDT
Nautical Twilight 4:53 AM CDT 9:20 PM CDT
Astronomical Twilight 4:14 AM CDT 9:58 PM CDT
Moon 7:32 PM CDT (7/15) 4:45 AM CDT (7/15)
Length of Visible Light 15h 15m
Length of Day
14h 17m
Waxing Gibbous, 99% of the Moon is Illuminated
Jul 15
Waxing Gibbous
Jul 16
Full
Jul 24
Last Quarter
Jul 31
New
Aug 7
First Quarter

Hourly Weather History & Observations

Time (CDT) Temp. Heat Index Dew Point Humidity Pressure Visibility Wind Dir Wind Speed Gust Speed Precip Events Conditions
12:38 AM 73.0 °F - 72.0 °F 96% 30.00 in 3.0 mi ESE 15.0 mph 24.2 mph 0.12 in Rain Rain
12:42 AM 73.0 °F - 72.0 °F 96% 29.99 in 2.5 mi ESE 16.1 mph 24.2 mph 0.14 in Rain Rain
12:53 AM 73.0 °F - 72.0 °F 96% 29.98 in 2.5 mi ESE 16.1 mph 24.2 mph 0.18 in Rain Rain
1:06 AM 72.0 °F - 72.0 °F 100% 29.98 in 2.5 mi ESE 17.3 mph 24.2 mph 0.04 in Rain Light Rain
1:08 AM 72.0 °F - 72.0 °F 100% 29.98 in 3.0 mi ESE 18.4 mph 24.2 mph 0.05 in Rain Light Rain
1:16 AM 72.0 °F - 72.0 °F 100% 29.98 in 2.5 mi ESE 16.1 mph 24.2 mph 0.07 in Rain Rain
1:25 AM 72.0 °F - 72.0 °F 100% 29.97 in 7.0 mi ESE 18.4 mph 25.3 mph 0.07 in Rain Light Rain
1:45 AM 73.0 °F - 72.0 °F 96% 29.97 in 5.0 mi SE 16.1 mph - 0.08 in Rain Light Rain
1:53 AM 73.0 °F - 72.0 °F 96% 29.96 in 4.0 mi ESE 15.0 mph 25.3 mph 0.08 in Rain Light Rain
2:14 AM 73.0 °F - 72.0 °F 96% 29.96 in 3.0 mi ESE 19.6 mph 24.2 mph 0.04 in Rain Rain
2:19 AM 73.0 °F - 72.0 °F 96% 29.96 in 2.5 mi ESE 15.0 mph 24.2 mph 0.05 in Rain Rain
2:30 AM 73.0 °F - 72.0 °F 96% 29.96 in 3.0 mi ESE 16.1 mph 24.2 mph 0.07 in Rain Light Rain
2:39 AM 73.0 °F - 72.0 °F 96% 29.95 in 2.5 mi SE 15.0 mph 25.3 mph 0.09 in Rain Rain
2:53 AM 73.0 °F - 72.0 °F 96% 29.93 in 3.0 mi SE 11.5 mph - 0.13 in Rain Rain
3:07 AM 73.0 °F - 72.0 °F 96% 29.94 in 2.0 mi SE 17.3 mph 25.3 mph 0.06 in Rain Rain
3:09 AM 73.0 °F - 72.0 °F 96% 29.94 in 1.8 mi SE 17.3 mph 25.3 mph 0.07 in Rain Heavy Rain
3:16 AM 73.0 °F - 72.0 °F 96% 29.94 in 2.0 mi ESE 12.7 mph 25.3 mph 0.10 in Rain Rain
3:26 AM 73.0 °F - 72.0 °F 96% 29.93 in 4.0 mi ESE 16.1 mph 24.2 mph 0.10 in Rain Light Rain
3:39 AM 73.0 °F - 72.0 °F 96% 29.93 in 10.0 mi SE 17.3 mph 26.5 mph 0.10 in   Overcast
3:53 AM 73.0 °F - 72.0 °F 96% 29.91 in 10.0 mi ESE 16.1 mph - 0.10 in   Overcast
3:59 AM 73.0 °F - 72.0 °F 96% 29.91 in 10.0 mi SE 15.0 mph 25.3 mph N/A   Overcast
4:14 AM 73.0 °F - 72.0 °F 96% 29.91 in 9.0 mi SE 18.4 mph 24.2 mph 0.00 in Rain Light Rain
4:53 AM 73.0 °F - 72.0 °F 96% 29.89 in 10.0 mi SE 21.9 mph 29.9 mph 0.11 in Rain Light Rain
5:31 AM 73.0 °F - 72.0 °F 96% 29.91 in 8.0 mi SE 20.7 mph 27.6 mph 0.00 in Rain Light Rain
5:53 AM 73.9 °F - 72.0 °F 93% 29.91 in 10.0 mi SE 20.7 mph 28.8 mph 0.00 in   Overcast
6:00 AM 73.9 °F - 72.0 °F 93% 29.91 in 10.0 mi SE 20.7 mph 31.1 mph N/A   Overcast
6:07 AM 73.9 °F - 72.0 °F 93% 29.92 in 10.0 mi SE 20.7 mph 27.6 mph N/A   Overcast
6:46 AM 73.9 °F - 72.0 °F 93% 29.92 in 10.0 mi SE 19.6 mph 27.6 mph N/A   Overcast
6:53 AM 73.9 °F - 73.0 °F 97% 29.91 in 10.0 mi SE 21.9 mph 31.1 mph N/A   Overcast
7:14 AM 73.9 °F - 73.0 °F 97% 29.92 in 10.0 mi SE 20.7 mph 28.8 mph 0.00 in Rain Light Rain
7:34 AM 73.9 °F - 73.0 °F 97% 29.93 in 2.0 mi SE 17.3 mph 26.5 mph 0.04 in Rain Rain
7:53 AM 75.0 °F - 73.0 °F 94% 29.92 in 2.5 mi SE 17.3 mph - 0.11 in Rain Light Rain
8:04 AM 73.9 °F - 73.0 °F 97% 29.93 in 3.0 mi SSE 15.0 mph - 0.03 in Rain Rain
8:16 AM 73.9 °F - 73.0 °F 97% 29.93 in 4.0 mi SSE 15.0 mph - 0.04 in Rain Light Rain
8:53 AM 75.0 °F - 73.9 °F 96% 29.93 in 5.0 mi SSE 20.7 mph 25.3 mph 0.06 in Rain Light Rain
9:37 AM 75.0 °F - 73.9 °F 96% 29.93 in 9.0 mi SE 20.7 mph 26.5 mph 0.00 in   Overcast
9:53 AM 75.9 °F - 73.9 °F 94% 29.92 in 9.0 mi SSE 17.3 mph - 0.00 in   Overcast
10:08 AM 75.9 °F - 73.9 °F 94% 29.93 in 2.5 mi SSE 18.4 mph 25.3 mph 0.02 in Rain Light Rain
10:15 AM 75.0 °F - 75.0 °F 100% 29.93 in 1.0 mi South 15.0 mph 25.3 mph 0.06 in Rain Rain
10:23 AM 75.0 °F - 73.9 °F 96% 29.93 in 3.0 mi SSE 16.1 mph - 0.07 in Rain Light Rain
10:53 AM 75.9 °F - 75.0 °F 97% 29.93 in 2.5 mi SSE 16.1 mph - 0.08 in Rain Light Rain
10:55 AM 75.9 °F - 75.0 °F 97% 29.94 in 1.8 mi SSE 12.7 mph - 0.01 in Rain Rain
11:03 AM 75.9 °F - 75.0 °F 97% 29.93 in 3.0 mi South 16.1 mph - 0.01 in Rain Light Rain
11:07 AM 75.9 °F - 75.0 °F 97% 29.93 in 7.0 mi South 17.3 mph 23.0 mph 0.01 in Rain Light Rain
11:15 AM 75.9 °F - 75.0 °F 97% 29.94 in 10.0 mi South 20.7 mph 28.8 mph 0.01 in   Overcast
11:53 AM 78.1 °F - 75.9 °F 93% 29.92 in 10.0 mi SSE 15.0 mph - 0.01 in   Overcast
12:03 PM 77.0 °F - 75.0 °F 94% 29.93 in 10.0 mi SSE 13.8 mph - N/A   Overcast
12:25 PM 78.1 °F - 75.0 °F 90% 29.93 in 10.0 mi SSE 11.5 mph 25.3 mph N/A   Overcast
12:51 PM 78.8 °F - 75.2 °F 89% 29.92 in 9.0 mi SSE 17.3 mph - 0.00 in Rain Light Rain
12:53 PM 78.1 °F - 75.9 °F 93% 29.91 in 9.0 mi South 17.3 mph - 0.00 in Rain Light Rain
1:44 PM 78.1 °F - 73.9 °F 87% 29.92 in 10.0 mi South 24.2 mph 34.5 mph 0.02 in   Overcast
1:53 PM 78.1 °F - 73.9 °F 87% 29.91 in 10.0 mi South 25.3 mph 33.4 mph 0.02 in   Overcast
2:12 PM 78.1 °F - 73.0 °F 84% 29.92 in 10.0 mi South 25.3 mph 38.0 mph N/A   Overcast
2:53 PM 78.1 °F - 73.9 °F 87% 29.91 in 10.0 mi South 25.3 mph 32.2 mph N/A   Overcast
3:53 PM 80.1 °F 84.5 °F 73.9 °F 81% 29.89 in 10.0 mi South 20.7 mph 29.9 mph N/A   Overcast
4:41 PM 80.1 °F 84.5 °F 73.9 °F 81% 29.90 in 10.0 mi South 18.4 mph 27.6 mph N/A   Overcast
4:53 PM 80.1 °F 84.5 °F 73.9 °F 81% 29.89 in 10.0 mi South 20.7 mph 26.5 mph N/A   Overcast
5:14 PM 79.0 °F - 75.0 °F 88% 29.89 in 7.0 mi South 12.7 mph - 0.00 in Rain Light Rain
5:53 PM 80.1 °F 85.1 °F 75.0 °F 85% 29.87 in 10.0 mi South 17.3 mph - 0.01 in   Overcast
6:42 PM 79.0 °F - 73.9 °F 84% 29.89 in 10.0 mi South 15.0 mph 21.9 mph N/A   Overcast
6:53 PM 80.1 °F 84.5 °F 73.9 °F 81% 29.87 in 10.0 mi South 16.1 mph - N/A   Mostly Cloudy
7:33 PM 77.0 °F - 75.0 °F 94% 29.88 in 1.8 mi South 8.1 mph - 0.05 in Rain Light Rain
7:53 PM 77.0 °F - 75.9 °F 96% 29.88 in 10.0 mi South 9.2 mph - 0.06 in Rain Light Rain
8:09 PM 77.0 °F - 75.9 °F 96% 29.89 in 2.5 mi South 9.2 mph - 0.03 in Rain Rain
8:19 PM 77.0 °F - 75.9 °F 96% 29.89 in 5.0 mi South 6.9 mph - 0.04 in Rain Light Rain
8:27 PM 77.0 °F - 75.9 °F 96% 29.89 in 3.0 mi South 6.9 mph - 0.09 in Rain Heavy Rain
8:34 PM 77.0 °F - 75.9 °F 96% 29.89 in 1.8 mi South 3.5 mph - 0.13 in Rain , Thunderstorm Rain
8:47 PM 77.0 °F - 75.2 °F 94% 29.90 in 1.0 mi WSW 6.9 mph 18.4 mph 0.40 in Rain Heavy Rain
8:53 PM 77.0 °F - 75.9 °F 96% 29.89 in 1.0 mi Variable 6.9 mph - 0.50 in Rain Heavy Rain
8:59 PM 77.0 °F - 75.9 °F 96% 29.90 in 2.0 mi SSW 9.2 mph - 0.01 in Rain , Thunderstorm Light Thunderstorms and Rain
9:12 PM 75.9 °F - 75.9 °F 100% 29.90 in 4.0 mi South 8.1 mph - 0.06 in Rain Light Rain
9:19 PM 77.0 °F - 75.9 °F 96% 29.89 in 10.0 mi South 10.4 mph - 0.06 in Rain , Thunderstorm Light Rain
9:34 PM 75.9 °F - 75.0 °F 97% 29.91 in 7.0 mi South 13.8 mph - 0.08 in Rain , Thunderstorm Light Rain
9:44 PM 75.0 °F - 75.0 °F 100% 29.92 in 7.0 mi South 13.8 mph - 0.09 in Rain Light Rain
9:53 PM 75.0 °F - 73.9 °F 96% 29.91 in 10.0 mi South 12.7 mph - 0.09 in Rain Light Rain
10:53 PM 75.0 °F - 73.9 °F 96% 29.93 in 10.0 mi South 11.5 mph - 0.00 in   Clear
11:53 PM 75.9 °F - 75.0 °F 97% 29.94 in 10.0 mi South 13.8 mph - N/A   Mostly Cloudy